Temp
7 6 6 5 5 4 4 4 3 3 3 2 2 1 1 1 1 1 2 1 1 2
6 5 5 4 4 3 3 2 2 2 2 1 1 0 0 -0 0 0 0 0 1 0
5 4 4 3 2 2 2 2 2 1 1 1 0 -0 -0 -1 -1 -1 -1 -1 -2 -1
4 3 3 2 2 1 1 1 1 1 1 0 -0 -1 -1 -2 -2 -3 -3 -3 -3 -2
3 3 2 1 1 1 1 1 0 0 -1 -1 -1 -1 -2 -3 -4 -4 -4 -4 -4 -3
3 2 1 1 1 1 1 0 -0 -1 -1 -1 -1 -2 -4 -4 -5 -5 -5 -5 -4 -3
2 1 0 0 1 1 0 -0 -1 -1 -2 -2 -2 -4 -4 -5 -5 -6 -5 -5 -4 -3
1 0 -0 0 -0 -0 -0 -1 -1 -2 -3 -3 -3 -4 -5 -6 -6 -6 -6 -5 -5 -5
0 -0 -0 -1 -1 -1 -1 -1 -2 -3 -4 -4 -4 -5 -5 -6 -7 -7 -6 -6 -6 -6
-0 -1 -1 -1 -1 -1 -2 -3 -4 -4 -5 -5 -5 -5 -6 -7 -8 -8 -7 -7 -7 -7
-0 -1 -2 -2 -2 -2 -3 -4 -5 -5 -6 -6 -7 -6 -7 -7 -8 -8 -8 -8 -8 -8
-1 -1 -2 -2 -3 -4 -4 -5 -6 -7 -7 -7 -8 -7 -7 -8 -9 -9 -9 -9 -9 -9
-1 -2 -2 -3 -4 -5 -6 -7 -7 -8 -8 -8 -8 -8 -8 -8 -9 -9 -9 -9 -10 -10
-1 -2 -3 -4 -5 -6 -7 -8 -8 -9 -9 -9 -9 -9 -8 -8 -9 -9 -9 -10 -11 -10
Height
808 809 808 808 809 809 809 810 809 808 806 805 804 802 800 798 796 794 791 788 786 783
809 810 810 810 809 810 810 809 808 806 804 804 803 802 799 798 795 793 790 788 785 782
809 809 810 809 810 810 810 809 808 807 805 803 802 801 799 796 794 791 789 787 783 780
809 810 810 809 810 811 811 810 809 807 805 803 802 800 798 796 794 790 787 784 780 777
809 810 810 810 810 811 811 810 809 808 805 804 802 799 797 795 792 789 785 780 776 772
809 810 811 810 811 811 810 811 809 807 806 804 801 799 797 794 791 788 783 778 774 768
809 810 811 812 812 811 810 810 808 806 806 804 802 800 797 793 789 785 780 776 773 767
810 811 813 812 812 811 811 810 808 807 806 803 802 800 796 792 788 783 778 774 771 765
810 813 813 812 812 811 811 810 809 807 805 804 802 799 795 792 787 781 776 771 766 762
813 813 812 813 813 812 811 810 808 807 807 804 801 798 795 792 787 781 776 771 765 758
811 812 813 814 814 813 811 809 810 809 806 803 801 799 795 790 785 780 775 770 764 758
812 813 814 814 814 812 811 812 812 809 806 804 801 799 794 789 783 778 773 768 762 757
812 813 814 813 813 814 814 814 812 809 807 805 802 798 793 788 781 776 771 767 760 755
812 813 813 813 814 815 816 815 812 810 808 805 801 798 793 788 782 777 772 766 759 753
Wind_Speed
9 11 11 10 10 12 13 14 18 20 19 19 17 17 16 15 17 17 18 19 18 18
9 9 11 10 10 11 12 13 17 18 19 18 18 17 17 16 17 19 17 18 19 21
8 9 9 9 12 13 14 15 16 17 17 17 17 18 18 19 17 21 20 22 22 22
8 8 8 9 12 13 14 14 16 16 16 16 17 18 19 15 17 22 25 22 22 24
8 9 8 10 12 12 12 14 14 14 16 18 16 19 15 17 22 23 24 26 25 25
9 10 10 11 11 11 12 13 13 16 17 17 19 14 18 20 24 25 26 25 25 26
11 10 10 10 11 10 12 13 14 16 15 15 17 15 20 24 27 28 26 25 24 25
10 9 9 10 11 13 12 12 16 15 14 18 15 18 24 28 27 26 26 24 23 27
9 8 10 11 12 12 11 13 14 16 17 19 12 21 24 27 27 27 25 27 29 28
8 10 12 12 12 13 14 15 16 17 18 18 16 22 24 27 26 24 25 26 29 29
8 11 10 11 13 15 17 18 18 18 19 19 20 23 25 27 26 23 24 26 27 28
9 10 11 13 15 18 17 17 18 18 19 20 21 23 26 29 26 25 24 27 27 28
9 13 14 14 16 16 17 16 17 18 20 18 20 24 26 30 27 27 25 29 29 28
13 15 14 14 13 14 14 15 20 18 20 20 20 24 25 28 27 26 25 27 30 31
Wind_Direction
71 61 50 39 29 22 17 14 4 5 4 5 359 356 351 346 342 336 332 327 324 326
64 55 44 43 38 25 8 7 5 3 2 359 357 355 353 346 342 337 342 341 330 328
71 58 48 38 27 14 16 9 2 360 358 358 356 355 352 346 349 353 347 334 326 320
70 55 41 31 14 17 12 6 360 359 356 359 352 353 348 359 353 347 337 332 326 320
62 59 59 30 25 21 10 4 2 359 6 357 353 352 7 5 354 346 337 329 324 319
81 75 50 34 32 20 9 4 5 1 4 359 358 1 7 0 354 342 333 328 323 321
80 59 41 37 23 24 17 13 10 4 1 9 6 10 7 0 351 340 335 331 328 333
72 61 46 36 33 26 18 15 8 7 18 7 2 13 6 357 349 341 335 336 337 335
75 58 53 40 33 27 22 19 15 25 16 9 7 9 3 356 351 343 342 340 337 335
83 75 57 45 34 27 41 37 40 25 16 14 15 8 0 354 352 345 343 341 338 335
78 81 57 47 40 50 46 46 33 26 21 20 13 3 358 354 354 348 344 343 341 338
86 85 62 58 52 51 47 37 34 24 23 18 13 5 360 357 355 347 346 346 342 343
99 91 81 69 63 52 47 38 30 26 24 17 11 5 2 0 357 348 350 348 343 343
104 94 84 74 61 44 41 41 35 28 23 21 11 4 3 1 1 352 350 345 344 343